QPF
0.00 0.00 0.00 0.00 0.00 0.00 0.00 0.00 0.00 0.00 0.00 0.00 0.00 0.00 0.00 0.00 0.00 0.00 0.00 0.00 0.00 0.00 0.00 0.00 0.00 0.00 0.00 0.00 0.00 0.00 0.01 0.01 0.01 0.01 0.01 0.02 0.03 0.04
0.00 0.00 0.00 0.00 0.00 0.00 0.00 0.00 0.00 0.01 0.01 0.00 0.00 0.00 0.00 0.00 0.00 0.00 0.00 0.00 0.00 0.00 0.00 0.00 0.00 0.00 0.01 0.01 0.01 0.01 0.01 0.01 0.01 0.01 0.01 0.01 0.02 0.03
0.00 0.00 0.00 0.00 0.00 0.00 0.00 0.00 0.00 0.01 0.01 0.00 0.00 0.00 0.01 0.01 0.01 0.01 0.01 0.01 0.00 0.00 0.00 0.00 0.01 0.01 0.01 0.01 0.01 0.01 0.01 0.02 0.02 0.02 0.02 0.02 0.02 0.02
0.00 0.00 0.00 0.00 0.00 0.00 0.00 0.00 0.01 0.01 0.01 0.01 0.01 0.01 0.01 0.01 0.01 0.02 0.01 0.01 0.01 0.00 0.00 0.00 0.00 0.01 0.01 0.01 0.02 0.02 0.01 0.01 0.01 0.02 0.02 0.03 0.03 0.04
0.00 0.00 0.00 0.00 0.00 0.00 0.01 0.01 0.01 0.01 0.02 0.02 0.02 0.01 0.01 0.01 0.02 0.02 0.01 0.02 0.01 0.00 0.00 0.00 0.00 0.00 0.00 0.01 0.01 0.01 0.00 0.00 0.01 0.01 0.02 0.03 0.04 0.06
0.00 0.00 0.00 0.00 0.00 0.01 0.01 0.02 0.02 0.03 0.03 0.03 0.02 0.02 0.01 0.01 0.03 0.03 0.02 0.02 0.01 0.01 0.01 0.01 0.01 0.00 0.00 0.00 0.00 0.01 0.01 0.01 0.01 0.02 0.03 0.03 0.04 0.04
0.00 0.00 0.00 0.00 0.00 0.01 0.01 0.03 0.04 0.05 0.04 0.04 0.03 0.02 0.02 0.02 0.03 0.03 0.03 0.02 0.01 0.01 0.02 0.02 0.02 0.02 0.02 0.01 0.01 0.00 0.00 0.01 0.01 0.02 0.03 0.03 0.03 0.03
0.00 0.00 0.00 0.00 0.00 0.00 0.01 0.01 0.03 0.04 0.04 0.04 0.05 0.04 0.03 0.04 0.04 0.04 0.03 0.03 0.02 0.02 0.03 0.02 0.02 0.02 0.03 0.03 0.02 0.01 0.00 0.00 0.01 0.01 0.02 0.04 0.03 0.02
0.00 0.01 0.00 0.00 0.01 0.02 0.01 0.01 0.01 0.02 0.03 0.04 0.06 0.06 0.06 0.06 0.06 0.05 0.05 0.04 0.04 0.03 0.05 0.04 0.03 0.03 0.03 0.02 0.01 0.00 0.00 0.00 0.00 0.01 0.01 0.02 0.03 0.03
0.01 0.01 0.01 0.01 0.02 0.01 0.01 0.01 0.01 0.01 0.02 0.03 0.04 0.04 0.04 0.04 0.04 0.05 0.04 0.04 0.03 0.04 0.06 0.05 0.03 0.03 0.02 0.03 0.02 0.00 0.00 0.00 0.00 0.00 0.00 0.00 0.01 0.02
0.00 0.01 0.01 0.02 0.01 0.00 0.01 0.01 0.01 0.01 0.01 0.01 0.02 0.02 0.02 0.03 0.03 0.04 0.05 0.04 0.03 0.03 0.05 0.05 0.04 0.03 0.03 0.05 0.04 0.02 0.01 0.01 0.01 0.00 0.00 0.00 0.00 0.00
0.00 0.00 0.00 0.00 0.00 0.00 0.01 0.02 0.02 0.02 0.01 0.01 0.03 0.03 0.04 0.04 0.04 0.05 0.06 0.05 0.04 0.03 0.03 0.03 0.03 0.03 0.03 0.04 0.05 0.04 0.04 0.02 0.01 0.01 0.01 0.01 0.01 0.01
0.01 0.01 0.01 0.00 0.00 0.00 0.01 0.02 0.02 0.01 0.01 0.03 0.04 0.05 0.05 0.04 0.04 0.05 0.05 0.05 0.05 0.04 0.04 0.05 0.04 0.04 0.04 0.02 0.03 0.04 0.05 0.04 0.03 0.03 0.02 0.02 0.02 0.03
0.01 0.01 0.01 0.00 0.00 0.00 0.01 0.01 0.01 0.01 0.03 0.05 0.05 0.05 0.04 0.04 0.03 0.03 0.04 0.04 0.04 0.04 0.04 0.05 0.05 0.05 0.04 0.03 0.03 0.03 0.03 0.03 0.03 0.04 0.04 0.03 0.03 0.03
0.01 0.01 0.00 0.00 0.01 0.02 0.01 0.01 0.02 0.04 0.05 0.05 0.05 0.05 0.05 0.04 0.03 0.03 0.03 0.03 0.03 0.03 0.03 0.04 0.05 0.05 0.05 0.05 0.04 0.03 0.03 0.02 0.03 0.04 0.04 0.04 0.03 0.03
0.01 0.01 0.01 0.01 0.01 0.01 0.02 0.03 0.04 0.05 0.05 0.06 0.06 0.05 0.04 0.03 0.03 0.03 0.03 0.02 0.02 0.02 0.02 0.03 0.04 0.04 0.04 0.04 0.05 0.05 0.05 0.05 0.04 0.05 0.06 0.06 0.05 0.04
0.00 0.01 0.02 0.01 0.01 0.01 0.02 0.02 0.04 0.05 0.05 0.05 0.05 0.04 0.03 0.03 0.03 0.03 0.02 0.02 0.02 0.02 0.02 0.03 0.04 0.05 0.05 0.04 0.05 0.05 0.05 0.06 0.07 0.07 0.07 0.08 0.07 0.06
0.01 0.02 0.01 0.01 0.01 0.02 0.02 0.02 0.02 0.03 0.04 0.05 0.05 0.04 0.04 0.03 0.03 0.02 0.02 0.03 0.02 0.02 0.02 0.03 0.03 0.03 0.03 0.03 0.08 0.10 0.08 0.09 0.10 0.09 0.08 0.09 0.10 0.08
0.01 0.01 0.01 0.01 0.01 0.02 0.02 0.02 0.02 0.02 0.03 0.04 0.04 0.04 0.04 0.03 0.02 0.02 0.02 0.02 0.02 0.02 0.02 0.02 0.01 0.02 0.02 0.04 0.09 0.15 0.12 0.10 0.09 0.08 0.08 0.08 0.09 0.09
0.01 0.01 0.01 0.02 0.02 0.02 0.02 0.01 0.01 0.01 0.02 0.03 0.03 0.03 0.03 0.03 0.02 0.02 0.02 0.02 0.02 0.02 0.02 0.01 0.02 0.03 0.03 0.05 0.11 0.16 0.15 0.08 0.06 0.07 0.09 0.09 0.10 0.10
0.01 0.01 0.01 0.02 0.02 0.02 0.01 0.01 0.01 0.01 0.01 0.01 0.02 0.02 0.02 0.02 0.02 0.02 0.02 0.01 0.01 0.01 0.02 0.03 0.03 0.03 0.02 0.02 0.07 0.13 0.16 0.18 0.14 0.11 0.11 0.10 0.09 0.08
0.01 0.01 0.01 0.01 0.01 0.01 0.01 0.01 0.01 0.01 0.01 0.00 0.01 0.01 0.01 0.01 0.01 0.01 0.01 0.01 0.01 0.01 0.02 0.02 0.02 0.01 0.00 0.01 0.06 0.12 0.14 0.13 0.14 0.15 0.15 0.11 0.07 0.07
0.01 0.00 0.01 0.01 0.01 0.01 0.00 0.00 0.00 0.01 0.00 0.00 0.00 0.00 0.01 0.00 0.01 0.01 0.01 0.00 0.00 0.01 0.01 0.01 0.01 0.00 0.00 0.01 0.02 0.03 0.04 0.04 0.03 0.05 0.11 0.13 0.10 0.09
MSLP
1022.28 1022.17 1021.99 1021.73 1021.40 1021.02 1020.59 1020.17 1019.77 1019.42 1019.11 1018.85 1018.63 1018.45 1018.27 1018.10 1017.92 1017.75 1017.57 1017.40 1017.23 1017.06 1016.90 1016.72 1016.53 1016.33 1016.10 1015.86 1015.61 1015.38 1015.17 1015.00 1014.87 1014.77 1014.72 1014.70 1014.70 1014.73
1022.40 1022.30 1022.13 1021.89 1021.59 1021.22 1020.81 1020.39 1019.98 1019.59 1019.23 1018.91 1018.62 1018.35 1018.09 1017.83 1017.57 1017.30 1017.03 1016.76 1016.51 1016.26 1016.04 1015.82 1015.61 1015.42 1015.23 1015.05 1014.88 1014.72 1014.59 1014.47 1014.37 1014.28 1014.21 1014.15 1014.10 1014.08
1022.47 1022.38 1022.23 1022.02 1021.75 1021.42 1021.04 1020.64 1020.23 1019.82 1019.43 1019.06 1018.70 1018.35 1018.00 1017.65 1017.28 1016.90 1016.52 1016.14 1015.78 1015.44 1015.12 1014.85 1014.60 1014.40 1014.24 1014.11 1014.01 1013.93 1013.87 1013.81 1013.75 1013.68 1013.60 1013.52 1013.44 1013.38
1022.54 1022.45 1022.32 1022.14 1021.90 1021.61 1021.27 1020.89 1020.49 1020.07 1019.66 1019.24 1018.82 1018.40 1017.97 1017.52 1017.04 1016.56 1016.06 1015.56 1015.07 1014.62 1014.20 1013.85 1013.55 1013.32 1013.16 1013.06 1013.01 1013.00 1013.00 1013.00 1012.99 1012.95 1012.88 1012.79 1012.70 1012.63
1022.64 1022.54 1022.41 1022.24 1022.03 1021.76 1021.45 1021.10 1020.70 1020.29 1019.85 1019.40 1018.93 1018.44 1017.93 1017.39 1016.83 1016.24 1015.63 1015.02 1014.41 1013.84 1013.32 1012.87 1012.50 1012.22 1012.04 1011.94 1011.92 1011.95 1012.01 1012.07 1012.11 1012.11 1012.07 1012.00 1011.92 1011.86
1022.79 1022.65 1022.50 1022.32 1022.11 1021.86 1021.56 1021.21 1020.82 1020.39 1019.94 1019.45 1018.94 1018.39 1017.82 1017.22 1016.58 1015.91 1015.22 1014.51 1013.82 1013.14 1012.52 1011.98 1011.53 1011.18 1010.96 1010.84 1010.82 1010.87 1010.97 1011.07 1011.15 1011.20 1011.21 1011.18 1011.14 1011.12
1022.95 1022.76 1022.56 1022.35 1022.11 1021.84 1021.53 1021.18 1020.77 1020.33 1019.84 1019.32 1018.77 1018.19 1017.58 1016.94 1016.26 1015.55 1014.81 1014.06 1013.29 1012.55 1011.85 1011.23 1010.70 1010.29 1010.00 1009.84 1009.80 1009.85 1009.96 1010.09 1010.22 1010.31 1010.38 1010.40 1010.42 1010.45
1023.08 1022.82 1022.55 1022.29 1022.00 1021.70 1021.35 1020.96 1020.53 1020.05 1019.54 1018.99 1018.41 1017.81 1017.19 1016.54 1015.86 1015.15 1014.41 1013.65 1012.87 1012.10 1011.35 1010.67 1010.08 1009.60 1009.25 1009.04 1008.95 1008.97 1009.07 1009.22 1009.37 1009.52 1009.63 1009.73 1009.81 1009.90
1023.13 1022.78 1022.44 1022.11 1021.76 1021.40 1021.01 1020.57 1020.09 1019.58 1019.02 1018.45 1017.86 1017.25 1016.64 1016.02 1015.38 1014.71 1014.02 1013.30 1012.55 1011.79 1011.05 1010.34 1009.71 1009.17 1008.75 1008.47 1008.33 1008.30 1008.37 1008.51 1008.68 1008.85 1009.01 1009.16 1009.31 1009.46
1023.05 1022.63 1022.22 1021.82 1021.41 1020.98 1020.53 1020.05 1019.52 1018.96 1018.37 1017.77 1017.17 1016.58 1015.99 1015.42 1014.85 1014.27 1013.67 1013.03 1012.35 1011.65 1010.94 1010.24 1009.58 1009.00 1008.52 1008.17 1007.95 1007.86 1007.87 1007.97 1008.13 1008.31 1008.50 1008.69 1008.89 1009.10
1022.85 1022.38 1021.91 1021.45 1020.99 1020.51 1020.01 1019.46 1018.89 1018.28 1017.66 1017.04 1016.44 1015.87 1015.33 1014.83 1014.35 1013.87 1013.38 1012.85 1012.27 1011.65 1010.99 1010.31 1009.65 1009.04 1008.50 1008.07 1007.77 1007.59 1007.53 1007.57 1007.68 1007.84 1008.04 1008.26 1008.48 1008.73
1022.58 1022.07 1021.57 1021.07 1020.57 1020.05 1019.50 1018.92 1018.30 1017.66 1017.01 1016.37 1015.77 1015.22 1014.74 1014.30 1013.91 1013.54 1013.16 1012.75 1012.28 1011.74 1011.15 1010.51 1009.85 1009.21 1008.61 1008.10 1007.71 1007.43 1007.27 1007.23 1007.28 1007.40 1007.58 1007.79 1008.03 1008.30
1022.30 1021.77 1021.26 1020.74 1020.22 1019.67 1019.09 1018.47 1017.82 1017.14 1016.47 1015.82 1015.23 1014.71 1014.26 1013.89 1013.58 1013.30 1013.03 1012.72 1012.35 1011.90 1011.36 1010.76 1010.10 1009.43 1008.78 1008.20 1007.70 1007.32 1007.06 1006.92 1006.89 1006.95 1007.08 1007.27 1007.51 1007.79
1022.06 1021.54 1021.02 1020.50 1019.96 1019.39 1018.79 1018.14 1017.46 1016.77 1016.08 1015.43 1014.84 1014.34 1013.93 1013.61 1013.37 1013.16 1012.96 1012.74 1012.44 1012.06 1011.58 1011.00 1010.35 1009.66 1008.97 1008.31 1007.73 1007.25 1006.88 1006.64 1006.52 1006.50 1006.58 1006.74 1006.96 1007.24
1021.91 1021.39 1020.87 1020.34 1019.79 1019.21 1018.58 1017.92 1017.22 1016.52 1015.82 1015.18 1014.60 1014.12 1013.73 1013.45 1013.25 1013.10 1012.95 1012.78 1012.55 1012.21 1011.77 1011.22 1010.58 1009.88 1009.16 1008.45 1007.80 1007.23 1006.78 1006.45 1006.24 1006.15 1006.17 1006.29 1006.48 1006.75
1021.85 1021.32 1020.78 1020.24 1019.67 1019.06 1018.42 1017.74 1017.04 1016.33 1015.65 1015.01 1014.45 1013.98 1013.63 1013.37 1013.20 1013.08 1012.98 1012.85 1012.65 1012.36 1011.95 1011.43 1010.81 1010.12 1009.39 1008.66 1007.97 1007.35 1006.84 1006.44 1006.16 1006.01 1005.97 1006.04 1006.21 1006.45
1021.83 1021.28 1020.72 1020.14 1019.54 1018.91 1018.25 1017.56 1016.86 1016.16 1015.49 1014.87 1014.34 1013.90 1013.58 1013.35 1013.20 1013.11 1013.03 1012.93 1012.76 1012.51 1012.14 1011.66 1011.08 1010.42 1009.72 1009.00 1008.31 1007.69 1007.15 1006.71 1006.40 1006.19 1006.11 1006.14 1006.26 1006.48
1021.83 1021.23 1020.63 1020.01 1019.36 1018.70 1018.02 1017.33 1016.63 1015.95 1015.31 1014.73 1014.24 1013.84 1013.55 1013.35 1013.23 1013.16 1013.11 1013.03 1012.90 1012.68 1012.37 1011.95 1011.43 1010.84 1010.19 1009.53 1008.89 1008.29 1007.76 1007.33 1007.00 1006.78 1006.66 1006.65 1006.74 1006.91
1021.79 1021.15 1020.49 1019.82 1019.14 1018.44 1017.74 1017.05 1016.37 1015.72 1015.12 1014.59 1014.14 1013.80 1013.55 1013.38 1013.29 1013.24 1013.21 1013.16 1013.06 1012.90 1012.64 1012.29 1011.86 1011.35 1010.80 1010.23 1009.66 1009.13 1008.65 1008.25 1007.93 1007.70 1007.57 1007.54 1007.59 1007.72
1021.73 1021.04 1020.33 1019.61 1018.89 1018.18 1017.47 1016.78 1016.12 1015.51 1014.96 1014.48 1014.09 1013.79 1013.58 1013.45 1013.38 1013.35 1013.34 1013.31 1013.25 1013.13 1012.93 1012.66 1012.32 1011.92 1011.47 1011.01 1010.54 1010.10 1009.70 1009.35 1009.07 1008.86 1008.73 1008.67 1008.69 1008.78
1021.66 1020.94 1020.20 1019.45 1018.70 1017.98 1017.27 1016.60 1015.97 1015.40 1014.90 1014.47 1014.12 1013.86 1013.67 1013.56 1013.51 1013.49 1013.48 1013.47 1013.42 1013.34 1013.20 1013.00 1012.74 1012.44 1012.10 1011.75 1011.39 1011.04 1010.73 1010.45 1010.22 1010.04 1009.93 1009.87 1009.87 1009.93
1021.63 1020.90 1020.15 1019.39 1018.65 1017.93 1017.24 1016.59 1015.99 1015.45 1014.98 1014.59 1014.27 1014.02 1013.85 1013.73 1013.67 1013.63 1013.61 1013.59 1013.55 1013.48 1013.37 1013.22 1013.03 1012.81 1012.57 1012.31 1012.05 1011.80 1011.57 1011.36 1011.19 1011.06 1010.97 1010.92 1010.92 1010.96
1021.68 1020.97 1020.24 1019.50 1018.77 1018.07 1017.41 1016.78 1016.21 1015.70 1015.25 1014.87 1014.55 1014.30 1014.10 1013.96 1013.85 1013.77 1013.71 1013.66 1013.59 1013.51 1013.41 1013.28 1013.14 1012.97 1012.79 1012.61 1012.42 1012.25 1012.09 1011.95 1011.84 1011.76 1011.71 1011.69 1011.70 1011.75
Thickness
5557 5552 5547 5545 5539 5534 5528 5524 5521 5523 5523 5513 5505 5497 5488 5481 5476 5472 5471 5471 5469 5467 5465 5464 5463 5463 5464 5465 5466 5468 5471 5473 5476 5479 5483 5487 5492 5497
5538 5533 5527 5526 5521 5516 5512 5507 5502 5500 5503 5496 5487 5480 5471 5465 5461 5457 5456 5455 5454 5454 5452 5451 5450 5449 5450 5450 5452 5454 5456 5458 5460 5463 5466 5470 5474 5478
5523 5518 5513 5507 5503 5499 5496 5492 5488 5483 5482 5480 5470 5463 5455 5451 5448 5444 5443 5443 5444 5443 5442 5440 5440 5440 5440 5441 5442 5443 5445 5446 5448 5450 5452 5455 5458 5463
5508 5503 5498 5494 5488 5485 5481 5477 5471 5464 5460 5459 5454 5448 5442 5438 5436 5435 5434 5434 5434 5435 5434 5434 5435 5435 5435 5436 5436 5437 5437 5437 5438 5439 5440 5443 5446 5448
5493 5488 5484 5479 5475 5472 5466 5462 5456 5450 5444 5441 5440 5435 5432 5430 5429 5428 5427 5427 5428 5431 5433 5434 5435 5435 5435 5435 5434 5433 5432 5431 5431 5430 5431 5432 5435 5438
5480 5475 5471 5467 5462 5458 5453 5448 5442 5437 5432 5428 5427 5426 5425 5424 5423 5423 5423 5424 5426 5428 5432 5434 5436 5436 5435 5435 5433 5432 5430 5428 5426 5425 5424 5425 5427 5430
5468 5464 5460 5454 5447 5441 5437 5434 5429 5426 5423 5420 5419 5419 5419 5419 5418 5417 5418 5421 5423 5425 5430 5433 5435 5436 5437 5437 5435 5432 5430 5427 5424 5421 5420 5420 5421 5424
5457 5453 5449 5445 5440 5432 5427 5421 5417 5417 5417 5415 5414 5414 5415 5415 5414 5414 5414 5416 5421 5423 5424 5428 5431 5434 5435 5436 5435 5432 5429 5425 5422 5419 5417 5417 5417 5419
5445 5442 5439 5436 5429 5426 5421 5418 5417 5416 5414 5413 5413 5414 5414 5413 5412 5412 5412 5413 5415 5418 5419 5423 5427 5429 5431 5433 5431 5429 5427 5424 5421 5418 5415 5414 5414 5414
5435 5433 5430 5426 5423 5416 5415 5415 5417 5417 5416 5416 5415 5413 5412 5411 5409 5408 5408 5409 5412 5415 5416 5418 5422 5424 5427 5429 5428 5427 5424 5422 5420 5417 5414 5413 5412 5412
5426 5424 5421 5419 5415 5410 5410 5414 5417 5419 5418 5416 5414 5413 5412 5410 5407 5407 5408 5408 5410 5414 5414 5412 5415 5417 5424 5427 5426 5423 5422 5420 5418 5416 5414 5412 5410 5410
5417 5417 5416 5413 5410 5408 5410 5413 5416 5418 5418 5418 5418 5417 5415 5414 5411 5408 5408 5408 5408 5410 5410 5406 5409 5410 5415 5421 5422 5421 5420 5419 5417 5415 5413 5411 5410 5410
5411 5413 5413 5409 5409 5409 5409 5413 5414 5413 5416 5419 5419 5419 5418 5416 5414 5412 5411 5408 5407 5407 5406 5403 5404 5405 5406 5411 5417 5419 5418 5418 5417 5416 5414 5412 5410 5411
5405 5408 5410 5407 5409 5411 5413 5415 5414 5415 5420 5421 5421 5420 5418 5416 5414 5414 5412 5410 5408 5406 5404 5402 5401 5401 5403 5407 5411 5415 5416 5417 5416 5416 5416 5413 5411 5411
5401 5402 5405 5408 5411 5416 5417 5417 5418 5421 5422 5422 5421 5420 5417 5415 5414 5413 5413 5412 5411 5408 5405 5403 5401 5401 5402 5404 5407 5411 5413 5416 5415 5415 5416 5415 5415 5414
5399 5404 5407 5411 5414 5416 5419 5422 5423 5422 5422 5422 5421 5419 5417 5415 5413 5411 5411 5411 5410 5409 5407 5405 5404 5403 5402 5403 5406 5410 5412 5414 5415 5415 5415 5415 5415 5416
5393 5403 5409 5413 5415 5417 5420 5423 5424 5424 5424 5424 5423 5421 5418 5416 5413 5411 5409 5409 5408 5407 5408 5409 5409 5407 5404 5401 5406 5410 5414 5416 5417 5417 5416 5416 5415 5416
5394 5403 5406 5408 5411 5414 5418 5421 5424 5426 5426 5426 5425 5423 5420 5417 5414 5412 5409 5408 5408 5407 5408 5409 5411 5412 5410 5409 5403 5409 5414 5417 5418 5418 5417 5416 5415 5415
5397 5401 5404 5406 5410 5414 5418 5421 5425 5427 5429 5429 5428 5426 5423 5419 5416 5413 5411 5410 5409 5409 5408 5409 5410 5412 5412 5410 5409 5407 5413 5416 5418 5417 5416 5416 5415 5414
5398 5401 5403 5407 5411 5416 5420 5424 5428 5431 5433 5433 5431 5429 5425 5422 5419 5416 5413 5411 5411 5411 5410 5410 5410 5411 5410 5408 5407 5407 5409 5414 5416 5416 5415 5414 5413 5413
5399 5402 5406 5410 5415 5420 5425 5428 5432 5435 5437 5437 5435 5433 5429 5426 5423 5420 5417 5411 5412 5412 5412 5411 5411 5411 5412 5413 5412 5410 5409 5409 5411 5413 5416 5417 5416 5415
5400 5404 5409 5413 5419 5425 5430 5434 5437 5440 5441 5442 5440 5438 5435 5432 5429 5426 5423 5420 5419 5417 5416 5416 5416 5416 5416 5415 5413 5411 5410 5411 5411 5413 5413 5416 5418 5416
5401 5406 5412 5418 5423 5428 5433 5436 5439 5443 5444 5444 5444 5443 5441 5438 5435 5433 5431 5429 5427 5426 5424 5423 5422 5420 5419 5417 5415 5413 5413 5412 5412 5412 5410 5410 5413 5414